Salina, KS

3:57 AM CST on February 25, 2018 (GMT -0600)
Salina Municipal

Weather History for KSLN - October, 2012

Change the Weather History Date:

Monday, October 1, 2012

  Actual Average Record
Temperature  
Mean Temperature 59 °F 63 °F  
Max Temperature 68 °F 75 °F 97 °F (2006)
Min Temperature 50 °F 52 °F 30 °F (1958)
Degree Days  
Heating Degree Days 6 5  
Month to date heating degree days 6 5  
Since 1 July heating degree days 41 57  
Cooling Degree Days 0 3  
Month to date cooling degree days 0 3  
Year to date cooling degree days 2037 1615  
Growing Degree Days 8 (Base 50)    
Moisture  
Dew Point 49 °F    
Average Humidity 70    
Maximum Humidity 80    
Minimum Humidity 60    
Precipitation  
Precipitation 0.01 in 0.09 in 0.97 in (1998)
Month to date precipitation 0.01 0.09  
Year to date precipitation 16.40 27.13  
Sea Level Pressure  
Sea Level Pressure 29.97 in    
Wind  
Wind Speed 12 mph (NNW)    
Max Wind Speed 32 mph    
Max Gust Speed 37 mph    
Visibility 10 miles    
Events Rain    
T = Trace of Precipitation, MM = Missing Value Source: NWS Daily Summary

Daily Weather History Graph

Daily Weather History Graph

Search for Another Location

Airport or City:

Trip Planner

Search our weather history database for the weather conditions in past years. The results will help you decide how hot, cold, wet, or windy it might be!

Date:

Astronomy

Oct. 01, 2012 Rise Set
Actual Time 7:26 AM CDT 7:12 PM CDT
Civil Twilight 7:00 AM CDT 7:39 PM CDT
Nautical Twilight 6:29 AM CDT 8:09 PM CDT
Astronomical Twilight 5:58 AM CDT 8:40 PM CDT
Moon 7:52 PM CDT (10/1) 8:56 AM CDT (10/1)
Length of Visible Light 12h 38m
Length of Day
11h 45m
Full, 98% of the Moon is Illuminated
Oct 1
Full
Oct 8
Last Quarter
Oct 15
New
Oct 21
First Quarter
Oct 29
Full

Hourly Weather History & Observations

Time (CDT) Temp. Dew Point Humidity Pressure Visibility Wind Dir Wind Speed Gust Speed Precip Events Conditions
12:53 AM 55.0 °F 46.0 °F 72% 29.92 in 10.0 mi Calm Calm - N/A   Clear
1:53 AM 53.1 °F 46.0 °F 77% 29.92 in 10.0 mi Calm Calm - N/A   Clear
2:53 AM 51.8 °F 44.6 °F 76% 29.93 in 10.0 mi NW 3.5 mph - N/A   Clear
3:53 AM 53.1 °F 46.0 °F 77% 29.91 in 10.0 mi Calm Calm - N/A   Clear
4:53 AM 51.8 °F 44.6 °F 76% 29.93 in 10.0 mi Calm Calm - N/A   Clear
5:53 AM 50.0 °F 44.1 °F 80% 29.92 in 10.0 mi NW 5.8 mph - N/A   Clear
6:53 AM 51.1 °F 45.0 °F 80% 29.92 in 10.0 mi NW 4.6 mph - N/A   Clear
7:53 AM 50.0 °F 44.1 °F 80% 29.93 in 10.0 mi NW 5.8 mph - N/A   Clear
8:53 AM 55.4 °F 46.4 °F 72% 29.98 in 10.0 mi NW 15.0 mph - N/A   Partly Cloudy
9:53 AM 64.0 °F 50.0 °F 60% 29.97 in 10.0 mi North 25.3 mph 32.2 mph N/A   Scattered Clouds
10:53 AM 64.0 °F 54.0 °F 70% 29.97 in 8.0 mi North 19.6 mph 28.8 mph 0.00 in Rain Light Rain
11:53 AM 63.0 °F 55.9 °F 78% 29.99 in 10.0 mi NNW 18.4 mph 23.0 mph 0.01 in   Overcast
12:53 PM 62.1 °F 55.0 °F 78% 29.99 in 10.0 mi NNW 17.3 mph - 0.00 in   Overcast
1:53 PM 66.2 °F 55.4 °F 68% 29.99 in 10.0 mi NNW 19.6 mph - N/A   Overcast
2:53 PM 64.9 °F 52.0 °F 63% 29.98 in 10.0 mi NNW 21.9 mph 28.8 mph N/A   Overcast
3:53 PM 64.0 °F 52.0 °F 65% 29.98 in 10.0 mi NNW 20.7 mph 26.5 mph 0.00 in Rain Light Rain
4:53 PM 61.0 °F 53.1 °F 75% 29.99 in 10.0 mi North 23.0 mph - 0.00 in Rain Light Rain
5:53 PM 63.0 °F 48.9 °F 60% 29.99 in 10.0 mi North 19.6 mph - 0.00 in   Overcast
6:53 PM 63.0 °F 50.0 °F 63% 29.99 in 10.0 mi North 17.3 mph - N/A   Mostly Cloudy
7:53 PM 59.0 °F 48.9 °F 69% 30.00 in 10.0 mi NNW 8.1 mph - N/A   Clear
8:53 PM 55.9 °F 48.9 °F 77% 30.01 in 10.0 mi NW 6.9 mph - N/A   Scattered Clouds
9:53 PM 57.9 °F 50.0 °F 75% 30.01 in 10.0 mi NW 5.8 mph - N/A   Overcast
10:53 PM 57.9 °F 50.0 °F 75% 30.02 in 10.0 mi NW 8.1 mph - N/A   Overcast
11:53 PM 57.9 °F 48.0 °F 70% 30.02 in 10.0 mi NW 10.4 mph - N/A   Overcast